Waarnemingen

Advertentie
Mijn weer
UFS TW Ems, Duitsland (10004): temperatuur & dauwpunt: 22.05.2018 12:00:00 - 28.05.2018 12:00:00 (CEST)UFS TW Ems, Duitsland (10004): windsnelheid & windstoten: 22.05.2018 12:00:00 - 28.05.2018 12:00:00 (CEST)UFS TW Ems, Duitsland (10004): windrichting: 22.05.2018 12:00:00 - 28.05.2018 12:00:00 (CEST)UFS TW Ems, Duitsland (10004): luchtdruk: 22.05.2018 12:00:00 - 28.05.2018 12:00:00 (CEST)UFS TW Ems, Duitsland (10004): zicht: 22.05.2018 12:00:00 - 28.05.2018 12:00:00 (CEST)UFS TW Ems, Duitsland (10004): Zonneschijnduur: 22.05.2018 12:00:00 - 28.05.2018 12:00:00 (CEST)
Datum & Tijd tt [°C] td [°C] ff [km/u] ff [kn] fx [km/u] fx [kn] dd ppp [hPa] vv [km] sd [min]
28.05.2018 12:00:00 - - - - - - - - - -
28.05.2018 11:00:00 14,1 13,3 18 10 - - O 1020,1 10 60
28.05.2018 10:00:00 - - - - - - - - - -
28.05.2018 09:00:00 - - - - - - - - - -
28.05.2018 08:00:00 - - - - - - - - - -
28.05.2018 07:00:00 13,5 13,0 14 8 - - ONO 1019,5 7 18
28.05.2018 06:00:00 13,2 13,1 18 10 - - NO 1019,3 4,5 0
28.05.2018 05:00:00 13,4 13,2 18 10 - - ONO 1019,1 4,2 0
28.05.2018 04:00:00 13,4 13,3 22 12 - - ONO 1018,9 4,0 0
28.05.2018 03:00:00 13,4 13,2 22 12 - - ONO 1019,2 4,6 0
28.05.2018 02:00:00 13,6 13,5 25 14 - - O 1019,4 6 0
28.05.2018 01:00:00 14,3 13,6 32 18 - - O 1019,6 9 0
28.05.2018 00:00:00 14,5 13,5 29 16 - - O 1019,7 10 0
27.05.2018 23:00:00 14,9 13,6 29 16 - - ONO 1019,3 10 0
27.05.2018 22:00:00 15,1 13,8 29 16 - - ONO 1019,3 10 0
27.05.2018 21:00:00 15,0 13,6 29 16 - - ONO 1019,4 10 54
27.05.2018 20:00:00 15,3 13,8 32 18 - - ONO 1019,0 10 60
27.05.2018 19:00:00 15,0 13,8 25 14 - - NO 1019,8 10 60
27.05.2018 18:00:00 - - - - - - - - - -
27.05.2018 17:00:00 - - - - - - - - - -
27.05.2018 16:00:00 - - - - - - - - - -
27.05.2018 15:00:00 - - - - - - - - - -
27.05.2018 14:00:00 14,2 13,7 25 14 - - NO 1022,0 8 60
27.05.2018 13:00:00 14,0 13,4 22 12 - - NO 1022,6 9 60
27.05.2018 12:00:00 13,9 13,2 18 10 - - ONO 1022,9 10 60
27.05.2018 11:00:00 13,8 13,3 22 12 - - O 1022,9 7 60
27.05.2018 10:00:00 - - - - - - - - - -
27.05.2018 09:00:00 - - - - - - - - - -
27.05.2018 08:00:00 - - - - - - - - - -
27.05.2018 07:00:00 - - - - - - - - - -
27.05.2018 06:00:00 - - - - - - - - - -
27.05.2018 05:00:00 - - - - - - - - - -
27.05.2018 04:00:00 14,5 12,7 18 10 - - ONO 1023,6 10 0
27.05.2018 03:00:00 14,3 12,8 18 10 - - NO 1023,8 10 0
27.05.2018 02:00:00 14,5 12,8 22 12 - - NO 1024,0 10 0
27.05.2018 01:00:00 14,5 13,0 22 12 - - NO 1024,0 10 0
27.05.2018 00:00:00 14,7 13,1 22 12 - - NO 1023,9 10 0
26.05.2018 23:00:00 14,8 12,9 22 12 - - NO 1023,8 10 0
26.05.2018 22:00:00 14,5 12,9 22 12 - - NO 1023,5 10 30
26.05.2018 21:00:00 14,6 12,9 22 12 - - NO 1023,3 10 60
26.05.2018 20:00:00 14,3 12,8 25 14 - - NO 1023,2 10 60
26.05.2018 19:00:00 14,4 13,0 25 14 - - NO 1023,4 10 60
26.05.2018 18:00:00 14,3 13,0 22 12 - - NO 1023,4 10 60
26.05.2018 17:00:00 - - - - - - - - - -
26.05.2018 16:00:00 13,6 12,5 22 12 - - NO 1024,1 10 60
26.05.2018 15:00:00 13,4 12,5 22 12 - - NO 1024,4 10 60
26.05.2018 14:00:00 13,1 12,3 25 14 - - NO 1024,4 10 60
26.05.2018 13:00:00 12,9 12,1 22 12 - - NO 1024,3 10 60
26.05.2018 12:00:00 12,7 11,8 18 10 - - NO 1024,4 10 60
26.05.2018 11:00:00 12,9 11,7 14 8 - - ONO 1024,2 10 60
26.05.2018 10:00:00 12,7 11,2 22 12 - - ONO 1024,0 10 60
26.05.2018 09:00:00 12,8 11,0 22 12 - - NO 1023,9 10 60
26.05.2018 08:00:00 12,8 10,8 18 10 - - NO 1023,6 10 60
26.05.2018 07:00:00 13,1 10,9 22 12 - - NO 1023,2 10 60
26.05.2018 06:00:00 13,4 10,3 25 14 - - ONO 1022,9 10 12
26.05.2018 05:00:00 - - - - - - - - - -
26.05.2018 04:00:00 - - - - - - - - - -
26.05.2018 03:00:00 13,3 10,1 29 16 - - NO 1023,1 10 0
26.05.2018 02:00:00 - - - - - - - - - -
26.05.2018 01:00:00 - - - - - - - - - -
26.05.2018 00:00:00 - - - - - - - - - -
25.05.2018 23:00:00 - - - - - - - - - -
25.05.2018 22:00:00 - - - - - - - - - -
25.05.2018 21:00:00 - - - - - - - - - -
25.05.2018 20:00:00 15,6 10,1 40 21 - - ONO 1020,5 10 42
25.05.2018 19:00:00 15,9 10,6 40 21 50 27 ONO 1020,2 10 24
25.05.2018 18:00:00 15,7 11,1 40 21 47 25 ONO 1020,9 10 60
25.05.2018 17:00:00 15,6 11,8 36 19 - - ONO 1020,8 10 42
25.05.2018 16:00:00 15,0 11,8 32 18 - - ONO 1021,2 10 60
25.05.2018 15:00:00 - - - - - - - - - -
25.05.2018 14:00:00 - - - - - - - - - -
25.05.2018 13:00:00 - - - - - - - - - -
25.05.2018 12:00:00 - - - - - - - - - -
25.05.2018 11:00:00 - - - - - - - - - -
25.05.2018 10:00:00 - - - - - - - - - -
25.05.2018 09:00:00 - - - - - - - - - -
25.05.2018 08:00:00 - - - - - - - - - -
25.05.2018 07:00:00 13,1 10,9 29 16 - - O 1020,7 10 54
25.05.2018 06:00:00 - - - - - - - - - -
25.05.2018 05:00:00 - - - - - - - - - -
25.05.2018 04:00:00 13,1 10,8 29 16 - - O 1020,5 10 0
25.05.2018 03:00:00 - - - - - - - - - -
25.05.2018 02:00:00 13,2 10,7 32 18 - - O 1021,0 10 0
25.05.2018 01:00:00 - - - - - - - - - -
25.05.2018 00:00:00 - - - - - - - - - -
24.05.2018 23:00:00 - - - - - - - - - -
24.05.2018 22:00:00 - - - - - - - - - -
24.05.2018 21:00:00 - - - - - - - - - -
24.05.2018 20:00:00 - - - - - - - - - -
24.05.2018 19:00:00 15,0 11,1 32 18 - - ONO 1020,5 10 60
24.05.2018 18:00:00 14,6 10,7 29 16 - - ONO 1021,1 10 60
24.05.2018 17:00:00 14,9 11,0 32 18 - - ONO 1021,8 4,6 60
24.05.2018 16:00:00 14,9 11,9 29 16 - - ONO 1022,4 10 60
24.05.2018 15:00:00 14,2 11,7 29 16 - - ONO 1023,0 10 60
24.05.2018 14:00:00 13,6 11,5 29 16 - - ONO 1023,5 10 60
24.05.2018 13:00:00 13,4 11,2 29 16 - - NO 1023,9 10 60
24.05.2018 12:00:00 13,2 11,2 29 16 - - NO 1024,2 10 60
24.05.2018 11:00:00 13,3 10,9 29 16 - - NO 1024,5 10 60
24.05.2018 10:00:00 13,4 10,6 25 14 - - NO 1024,6 10 60
24.05.2018 09:00:00 13,2 10,8 25 14 - - NO 1024,7 10 60
24.05.2018 08:00:00 - - - - - - - - - -
24.05.2018 07:00:00 - - - - - - - - - -
24.05.2018 06:00:00 - - - - - - - - - -
24.05.2018 05:00:00 - - - - - - - - - -
24.05.2018 04:00:00 - - - - - - - - - -
24.05.2018 03:00:00 12,8 11,4 29 16 - - NO 1025,1 10 0
24.05.2018 02:00:00 12,4 11,3 25 14 - - NNO 1025,6 10 0
24.05.2018 01:00:00 12,8 11,2 29 16 - - NO 1025,7 10 0
24.05.2018 00:00:00 12,8 11,2 32 18 - - NO 1025,7 10 0
23.05.2018 23:00:00 12,8 11,4 29 16 - - NNO 1025,6 10 0
23.05.2018 22:00:00 12,7 11,7 29 16 - - NNO 1025,3 10 18
23.05.2018 21:00:00 12,7 11,9 25 14 - - NNO 1024,8 10 60
23.05.2018 20:00:00 12,6 12,0 29 16 - - NNO 1024,4 2,0 60
23.05.2018 19:00:00 11,7 11,6 29 16 - - NNO 1024,4 0,3 60
23.05.2018 18:00:00 12,1 11,6 29 16 - - N 1024,3 10 60
23.05.2018 17:00:00 12,6 12,0 29 16 - - NNO 1024,5 8 60
23.05.2018 16:00:00 12,9 11,7 29 16 - - NNO 1024,7 10 60
23.05.2018 15:00:00 13,0 11,6 25 14 - - NNO 1024,7 10 60
23.05.2018 14:00:00 12,7 11,6 25 14 - - NNO 1024,8 10 60
23.05.2018 13:00:00 - - - - - - - - - -
23.05.2018 12:00:00 - - - - - - - - - -
23.05.2018 11:00:00 - - - - - - - - - -
23.05.2018 10:00:00 - - - - - - - - - -
23.05.2018 09:00:00 13,1 10,0 22 12 - - NNO 1022,6 10 60
23.05.2018 08:00:00 13,1 10,0 18 10 - - NO 1021,9 10 60
23.05.2018 07:00:00 13,3 9,6 22 12 - - NO 1021,0 10 60
23.05.2018 06:00:00 13,0 10,2 29 16 - - NO 1020,5 10 12
23.05.2018 05:00:00 12,8 10,6 25 14 - - NNO 1020,2 10 0
23.05.2018 04:00:00 12,5 10,9 25 14 - - NNO 1020,0 10 0
23.05.2018 03:00:00 12,5 10,4 22 12 - - NNO 1019,7 10 0
23.05.2018 02:00:00 12,6 10,6 22 12 - - NO 1019,4 10 0
23.05.2018 01:00:00 - - - - - - - - - -
23.05.2018 00:00:00 12,8 11,2 25 14 - - NNO 1019,0 10 0
22.05.2018 23:00:00 - - - - - - - - - -
22.05.2018 22:00:00 - - - - - - - - - -
22.05.2018 21:00:00 - - - - - - - - - -
22.05.2018 20:00:00 - - - - - - - - - -
22.05.2018 19:00:00 - - - - - - - - - -
22.05.2018 18:00:00 - - - - - - - - - -
22.05.2018 17:00:00 - - - - - - - - - -
22.05.2018 16:00:00 - - - - - - - - - -
22.05.2018 15:00:00 - - - - - - - - - -
22.05.2018 14:00:00 11,5 10,6 18 10 - - NO 1016,3 10 60
22.05.2018 13:00:00 - - - - - - - - - -
22.05.2018 12:00:00 - - - - - - - - - -

tt = temperatuur
td = dauwpunt
ff = windsnelheid
fx = windstoten
dd = windrichting
ppp = luchtdruk
vv = zicht
sd = Zonneschijnduur

Weerstations in de omgeving